1491721201.13,18404,11.56,74098.5,7.05,-21.13,-22.53,0,*71
1491721202.35,18405,11.56,74098.0,7.05,-21.33,-22.83,0,*7F
1491721203.6,18406,11.56,74096.5,7.05,-20.83,-22.21,0,*7E
1491721204.8,18407,11.56,74100.0,7.05,-21.43,-22.93,0,*7B
1491721206.06,18408,11.56,74100.8,7.07,-21.27,-22.67,0,*7F
1491721207.33,18409,11.56,74100.3,7.07,-21.57,-23.03,0,*7A
1491721208.58,18410,11.56,74098.8,7.07,-21.73,-23.29,0,*7C
1491721209.81,18411,11.56,74098.3,7.09,-21.77,-23.29,0,*77
1491721211.03,18412,11.56,74098.0,7.09,-21.57,-23.13,0,*7F
1491721212.28,18413,11.56,74098.3,7.07,-21.27,-22.83,0,*7F
1491721213.49,18414,11.56,74096.8,7.09,-22.07,-23.65,0,*7E
1491721214.71,18415,11.56,74100.0,7.09,-22.67,-24.15,0,*79
1491721215.93,18416,11.56,74100.0,7.07,-21.39,-22.87,0,*71
1491721217.21,18417,11.56,74098.0,7.07,-20.79,-22.21,0,*79
1491721218.44,18418,11.56,74098.3,7.09,-21.87,-23.43,0,*7D
1491721219.67,18419,11.56,74100.3,7.09,-21.73,-23.19,0,*78
1491721220.92,18420,11.56,74096.8,7.09,-21.27,-22.77,0,*7A
1491721222.11,18421,11.56,74100.3,7.09,-20.93,-22.37,0,*71
1491721223.33,18422,11.56,74098.3,7.11,-21.09,-22.57,0,*7F
1491721224.55,18423,11.56,74100.5,7.11,-21.73,-23.39,0,*7A
1491721225.8,18424,11.56,74100.8,7.11,-22.27,-23.69,0,*7A
1491721227.04,18425,11.56,74100.0,7.11,-21.33,-22.83,0,*78
1491721228.25,18426,11.56,74098.0,7.13,-21.47,-22.93,0,*7B
1491721229.49,18427,11.56,74098.5,7.13,-21.33,-22.73,0,*77
1491721230.71,18428,11.56,74096.0,7.13,-21.13,-22.73,0,*7A
1491721231.91,18429,11.56,74100.3,7.13,-21.43,-22.87,0,*75
1491721233.11,18430,11.56,74098.0,7.13,-21.63,-23.09,0,*78
1491721234.31,18431,11.56,74096.5,7.13,-21.93,-23.39,0,*75
1491721235.54,18432,11.56,74102.3,7.13,-21.77,-23.23,0,*77
1491721236.77,18433,11.56,74098.0,7.13,-21.43,-22.77,0,*71
1491721237.97,18434,11.56,74100.5,7.13,-21.13,-22.57,0,*71
1491721239.21,18435,11.56,74100.0,7.17,-21.97,-23.65,0,*78
1491721240.49,18436,11.56,74098.3,7.15,-21.67,-23.33,0,*75
1491721241.72,18437,11.56,74096.3,7.17,-21.39,-23.03,0,*7E
1491721242.97,18438,11.56,74098.8,7.15,-20.83,-22.27,0,*74
1491721244.2,18439,11.56,74098.3,7.17,-20.99,-22.63,0,*7C
1491721245.45,18440,11.56,74096.8,7.17,-22.31,-23.85,0,*7B
1491721246.73,18441,11.56,74096.0,7.19,-22.21,-23.49,0,*75
1491721247.96,18442,11.56,74096.5,7.17,-21.53,-22.97,0,*7C
1491721249.19,18443,11.56,74100.3,7.17,-21.23,-22.67,0,*75
1491721250.44,18444,11.56,74098.5,7.17,-21.57,-23.03,0,*72
1491721251.69,18445,11.56,74096.5,7.17,-21.57,-23.03,0,*73
1491721252.93,18446,11.56,74098.0,7.19,-22.07,-23.69,0,*74
1491721254.2,18447,11.56,74100.5,7.19,-22.31,-23.85,0,*72
1491721255.43,18448,11.56,74096.5,7.19,-21.39,-22.87,0,*75
1491721256.68,18449,11.56,74098.5,7.19,-21.93,-23.49,0,*77
1491721257.95,18450,11.56,74098.0,7.19,-20.83,-22.21,0,*70
1491721259.15,18451,11.56,74098.3,7.21,-20.63,-22.11,0,*77
1491721260.38,18452,11.56,74100.8,7.21,-20.59,-21.97,0,*70
1491721261.62,18453,11.56,74102.3,7.21,-21.87,-23.43,0,*78
1491721262.84,18454,11.56,74100.5,7.25,-21.17,-22.73,0,*70
1491721264.05,18455,11.56,74098.8,7.25,-21.17,-22.57,0,*77
1491721265.27,18456,11.56,74098.8,7.25,-21.97,-23.39,0,*75
1491721266.52,18457,11.56,74096.5,7.25,-21.83,-23.33,0,*7B
1491721267.74,18458,11.56,74098.8,7.27,-21.13,-22.63,0,*7B
1491721269.0,18459,11.56,74096.0,7.27,-20.59,-21.97,0,*7D
1491721270.22,18460,11.56,74100.0,7.27,-21.13,-22.57,0,*77
1491721271.45,18461,11.56,74096.8,7.29,-21.43,-23.03,0,*7D
1491721272.65,18462,11.56,74102.5,7.29,-21.39,-22.87,0,*7E
1491721273.88,18463,11.56,74098.0,7.29,-21.39,-22.73,0,*74
1491721275.08,18464,11.56,74100.5,7.29,-21.13,-22.57,0,*7D
1491721276.28,18465,11.56,74100.0,7.29,-21.63,-23.13,0,*7A
1491721277.51,18466,11.56,74100.0,7.29,-22.53,-24.11,0,*7C
1491721278.73,18467,11.56,74098.8,7.29,-22.07,-23.53,0,*7D
1491721279.93,18468,11.56,74102.3,7.29,-21.13,-22.53,0,*75
1491721281.18,18469,11.56,74096.5,7.31,-20.49,-21.93,0,*7C
1491721282.43,18470,11.56,74102.5,7.31,-20.79,-22.07,0,*79
1491721283.67,18471,11.56,74100.8,7.31,-20.15,-21.43,0,*71
1491721284.9,18472,11.56,74098.3,7.35,-20.39,-21.93,0,*75
1491721286.17,18473,11.56,74098.3,7.35,-21.27,-22.73,0,*77
1491721287.45,18474,11.56,74100.3,7.35,-21.27,-22.77,0,*74
1491721288.67,18475,11.56,74100.3,7.35,-20.89,-22.37,0,*74
1491721289.92,18476,11.56,74102.0,7.35,-20.83,-22.41,0,*7C
1491721291.2,18477,11.56,74102.5,7.39,-21.57,-23.03,0,*7E
1491721292.43,18478,11.56,74096.0,7.37,-21.67,-23.09,0,*76
1491721293.71,18479,11.56,74098.8,7.39,-21.27,-22.73,0,*71
1491721294.93,18480,11.56,74100.8,7.39,-21.43,-22.87,0,*7E
1491721296.18,18481,11.56,74102.5,7.39,-20.99,-22.37,0,*72
1491721297.46,18482,11.56,74102.5,7.39,-20.79,-22.21,0,*78
1491721298.68,18483,11.56,74098.3,7.41,-21.03,-22.53,0,*7F
1491721299.89,18484,11.56,74098.0,7.41,-22.27,-23.95,0,*76
1491721301.12,18485,11.56,74104.3,7.41,-21.87,-23.13,0,*70
1491721302.39,18486,11.56,74100.8,7.39,-21.33,-22.73,0,*74
1491721303.62,18487,11.56,74096.8,7.41,-21.27,-22.93,0,*71
1491721304.84,18488,11.56,74102.3,7.41,-21.27,-22.63,0,*71
1491721306.07,18489,11.56,74098.8,7.43,-21.17,-22.37,0,*70
1491721307.26,18490,11.56,74100.3,7.41,-20.73,-22.03,0,*7E
1491721308.51,18491,11.56,74100.8,7.47,-20.53,-21.93,0,*71
1491721309.76,18492,11.56,74100.8,7.47,-21.77,-23.23,0,*7C
1491721311.02,18493,11.56,74102.0,7.47,-21.77,-23.19,0,*74
1491721312.26,18494,11.56,74102.3,7.47,-21.63,-23.19,0,*76
1491721313.53,18495,11.56,74100.5,7.47,-22.47,-24.15,0,*79
1491721314.78,18496,11.56,74100.0,7.47,-22.27,-23.85,0,*72
1491721316.04,18497,11.56,74106.0,7.43,-21.73,-23.23,0,*79
1491721317.26,18498,11.56,74102.5,7.43,-21.43,-22.83,0,*7E
1491721318.5,18499,11.56,74098.5,7.43,-21.97,-23.59,0,*70
1491721319.75,18500,11.56,74102.0,7.47,-22.21,-23.75,0,*75
1491721320.98,18501,11.56,74098.0,7.47,-21.93,-23.43,0,*7B
1491721322.25,18502,11.56,74100.8,7.47,-21.97,-23.53,0,*7D
1491721323.48,18503,11.56,74098.8,7.47,-21.47,-22.93,0,*7C
1491721324.7,18504,11.56,74096.8,7.47,-21.63,-23.09,0,*7F
1491721325.97,18505,11.56,74098.8,7.47,-21.83,-23.29,0,*72
1491721327.22,18506,11.56,74100.3,7.49,-22.31,-23.89,0,*7F
1491721328.47,18507,11.56,74098.5,7.47,-21.77,-23.19,0,*78
1491721329.7,18508,11.56,74100.5,7.47,-21.47,-22.87,0,*72
1491721330.95,18509,11.56,74102.5,7.47,-21.67,-23.09,0,*76
1491721332.23,18510,11.56,74102.3,7.47,-21.53,-23.03,0,*73
1491721333.46,18511,11.56,74098.3,7.47,-20.43,-21.93,0,*79
1491721334.69,18512,11.56,74100.0,7.49,-21.17,-22.63,0,*78
1491721335.92,18513,11.56,74102.5,7.51,-21.33,-22.83,0,*78
1491721337.14,18514,11.56,74098.3,7.51,-22.73,-24.35,0,*73
1491721338.39,18515,11.56,74098.8,7.49,-22.41,-23.85,0,*76
1491721339.64,18516,11.56,74100.5,7.49,-21.93,-23.29,0,*7F
1491721340.9,18517,11.56,74100.0,7.49,-21.39,-22.77,0,*74
1491721342.17,18518,11.56,74102.0,7.49,-20.53,-21.83,0,*7E
1491721343.45,18519,11.56,74102.3,7.53,-20.19,-21.67,0,*70
1491721344.72,18520,11.56,74102.3,7.53,-20.19,-21.57,0,*79
1491721346.0,18521,11.56,74100.5,7.53,-20.35,-21.83,0,*7F
1491721347.24,18522,11.56,74102.5,7.57,-19.81,-21.17,0,*70
1491721348.47,18523,11.56,74098.5,7.57,-20.39,-21.77,0,*7E
1491721349.73,18524,11.56,74098.8,7.59,-20.53,-21.87,0,*74
1491721350.95,18525,11.56,74100.5,7.61,-20.93,-22.37,0,*7A
1491721352.21,18526,11.56,74102.8,7.61,-21.03,-22.53,0,*73
1491721353.46,18527,11.56,74100.0,7.63,-21.87,-23.33,0,*7B
1491721354.71,18528,11.56,74100.0,7.65,-21.27,-22.67,0,*78
1491721355.93,18529,11.56,74100.8,7.63,-20.79,-22.07,0,*73
1491721357.15,18530,11.56,74098.5,7.63,-20.93,-22.31,0,*7A
1491721358.37,18531,11.56,74100.0,7.65,-20.73,-22.07,0,*76
1491721359.58,18532,11.56,74096.0,7.63,-20.35,-21.73,0,*71
1491721360.79,18533,11.56,74100.5,7.65,-20.29,-21.73,0,*7B
1491721362.07,18534,11.56,74100.0,7.65,-20.49,-21.87,0,*71
1491721363.3,18535,11.56,74102.5,7.67,-21.67,-23.13,0,*70
1491721364.51,18536,11.56,74100.3,7.71,-22.07,-23.53,0,*75
1491721365.71,18537,11.56,74100.3,7.67,-21.63,-23.13,0,*76
1491721366.96,18538,11.56,74098.8,7.67,-21.83,-23.23,0,*74
1491721368.18,18539,11.56,74100.0,7.71,-21.27,-22.67,0,*7D
1491721369.44,18540,11.56,74102.0,7.67,-20.83,-22.17,0,*7C
1491721370.65,18541,11.56,74096.5,7.71,-20.79,-22.37,0,*7D
1491721371.85,18542,11.56,74100.0,7.71,-21.47,-22.87,0,*79
1491721373.07,18543,11.56,74102.3,7.73,-21.43,-22.83,0,*7A
1491721374.34,18544,11.56,74102.3,7.73,-21.27,-22.73,0,*70
1491721375.59,18545,11.56,74102.0,7.73,-21.73,-23.23,0,*74
1491721376.84,18546,11.56,74100.5,7.73,-21.57,-22.93,0,*7B
1491721378.09,18547,11.56,74102.5,7.73,-20.63,-21.97,0,*7B
1491721379.3,18548,11.56,74102.3,7.75,-20.93,-22.21,0,*73
1491721380.5,18549,11.56,74102.8,7.75,-21.43,-22.87,0,*72
1491721381.74,18550,11.56,74102.5,7.73,-21.33,-22.83,0,*7F
1491721382.97,18551,11.56,74100.5,7.75,-21.13,-22.47,0,*72
1491721384.17,18552,11.56,74102.5,7.75,-21.13,-22.63,0,*77
1491721385.39,18553,11.56,74100.8,7.75,-20.79,-22.07,0,*79
1491721386.64,18554,11.56,74102.3,7.77,-20.49,-22.07,0,*7F
1491721387.86,18555,11.56,74100.8,7.79,-20.53,-22.03,0,*7F
1491721389.08,18556,11.56,74098.5,7.79,-20.29,-21.67,0,*70
1491721390.33,18557,11.56,74100.3,7.79,-20.79,-22.31,0,*74
1491721391.55,18558,11.56,74102.3,7.83,-20.69,-22.07,0,*7A
1491721392.8,18559,11.56,74100.8,7.83,-20.53,-22.07,0,*72
1491721394.05,18560,11.56,74100.5,7.83,-21.77,-23.33,0,*79
1491721395.3,18561,11.56,74100.5,7.83,-21.93,-23.33,0,*72
1491721396.57,18562,11.56,74102.8,7.83,-21.33,-22.73,0,*7E
1491721397.82,18563,11.56,74102.0,7.83,-21.43,-23.03,0,*7E
1491721399.05,18564,11.56,74102.8,7.83,-21.13,-22.57,0,*7C
1491721400.3,18565,11.56,74102.0,7.83,-21.43,-22.77,0,*7A
1491721401.55,18566,11.56,74100.3,7.83,-21.63,-23.19,0,*72
1491721402.8,18567,11.56,74102.5,7.83,-22.27,-23.85,0,*75
1491721404.02,18568,11.56,74102.0,7.83,-21.63,-23.09,0,*7D
1491721405.27,18569,11.56,74100.5,7.83,-21.33,-22.67,0,*70
1491721406.52,18570,11.56,74100.0,7.83,-20.99,-22.41,0,*7D
1491721407.77,18571,11.63,74102.8,7.83,-21.03,-22.37,0,*7F
1491721408.99,18572,11.56,74100.5,7.85,-21.43,-22.73,0,*7E
1491721410.23,18573,11.56,74100.3,7.85,-20.93,-22.31,0,*75
1491721411.48,18574,11.56,74102.3,7.87,-21.23,-22.53,0,*7E
1491721412.75,18575,11.56,74100.3,7.87,-21.53,-22.97,0,*70
1491721413.98,18576,11.56,74098.8,7.85,-21.67,-23.13,0,*7B
1491721415.21,18577,11.56,74100.0,7.87,-21.43,-22.87,0,*72
1491721416.45,18578,11.56,74102.0,7.87,-20.43,-21.77,0,*70
1491721417.71,18579,11.56,74102.5,7.87,-21.23,-22.63,0,*70
1491721418.97,18580,11.56,74102.5,7.87,-21.13,-22.47,0,*73
1491721420.17,18581,11.56,74098.0,7.89,-20.39,-21.63,0,*70
1491721421.4,18582,11.56,74102.8,7.93,-20.99,-22.37,0,*70
1491721422.63,18583,11.56,74102.3,7.95,-21.47,-22.93,0,*7B
1491721423.83,18584,11.56,74100.8,7.93,-20.73,-22.07,0,*71
1491721425.08,18585,11.56,74102.5,7.93,-20.19,-21.57,0,*7A
1491721426.31,18586,11.56,74100.0,7.97,-20.53,-21.93,0,*7B
1491721427.56,18587,11.56,74102.5,7.97,-20.49,-22.21,0,*7B
1491721428.76,18588,11.56,74102.8,7.97,-21.39,-22.87,0,*7E
1491721430.0,18589,11.56,74100.0,7.97,-21.13,-22.47,0,*7B
1491721431.21,18590,11.56,74098.5,8.01,-20.09,-21.57,0,*7B
1491721432.42,18591,11.56,74100.8,8.01,-21.17,-22.53,0,*73
1491721433.69,18592,11.56,74100.8,7.99,-21.23,-22.73,0,*7B
1491721434.92,18593,11.56,74100.5,8.01,-21.33,-22.83,0,*7A
1491721436.14,18594,11.56,74102.5,8.01,-21.33,-22.67,0,*77
1491721437.34,18595,11.56,74102.0,8.01,-21.09,-22.53,0,*78
1491721438.56,18596,11.56,74102.3,8.01,-21.03,-22.41,0,*72
1491721439.8,18597,11.56,74100.0,8.01,-21.73,-23.23,0,*71
1491721441.02,18598,11.56,74100.5,8.01,-21.87,-23.39,0,*7E
1491721442.28,18599,11.56,74098.3,8.03,-21.67,-23.09,0,*70
1491721443.51,18600,11.56,74098.8,8.03,-21.47,-22.93,0,*73
1491721444.74,18601,11.56,74102.3,8.03,-20.69,-22.11,0,*75
1491721445.99,18602,11.56,74100.0,8.03,-20.99,-22.37,0,*7D
1491721447.21,18603,11.56,74098.8,8.05,-21.13,-22.73,0,*79
1491721448.46,18604,11.56,74102.0,8.03,-21.63,-23.33,0,*7A
1491721449.74,18605,11.56,74102.5,8.03,-21.27,-22.73,0,*7E
1491721450.94,18606,11.56,74100.3,8.05,-21.17,-22.63,0,*79
1491721452.14,18607,11.56,74100.5,8.05,-20.43,-21.77,0,*7E
1491721453.36,18608,11.56,74100.0,8.07,-20.63,-22.07,0,*75
1491721454.57,18609,11.56,74102.3,8.07,-21.09,-22.41,0,*7B
1491721455.82,18610,11.56,74102.8,8.07,-21.73,-23.19,0,*72
1491721457.09,18611,11.56,74102.3,8.07,-21.87,-23.29,0,*7B
1491721458.32,18612,11.56,74100.0,8.09,-21.23,-22.67,0,*73
1491721459.53,18613,11.56,74100.0,8.09,-20.89,-22.27,0,*77
1491721460.8,18614,11.56,74102.0,8.07,-20.99,-22.31,0,*78
1491721462.05,18615,11.56,74100.5,8.11,-21.17,-22.77,0,*7B
1491721463.27,18616,11.56,74102.8,8.11,-21.39,-22.67,0,*75
1491721464.5,18617,11.56,74100.3,8.11,-21.09,-22.63,0,*73
1491721465.72,18618,11.56,74102.0,8.11,-21.43,-22.97,0,*79
1491721466.92,18619,11.56,74102.0,8.15,-21.39,-22.93,0,*75
1491721468.11,18620,11.56,74100.0,8.15,-21.93,-23.39,0,*7E
1491721469.37,18621,11.63,74104.8,8.11,-22.53,-24.21,0,*7A
1491721470.6,18622,11.56,74102.3,8.09,-22.83,-24.41,0,*7B
1491721471.82,18623,11.56,74100.0,8.11,-22.11,-23.39,0,*70
1491721473.07,18624,11.56,74102.5,8.11,-20.93,-22.17,0,*72
1491721474.31,18625,11.56,74100.5,8.15,-20.83,-22.21,0,*73
1491721475.51,18626,11.56,74102.8,8.15,-20.89,-22.27,0,*7C
1491721476.74,18627,11.56,74106.0,8.15,-21.97,-23.43,0,*70
1491721477.93,18628,11.56,74102.5,8.15,-22.07,-23.59,0,*7E
1491721479.12,18629,11.56,74102.0,8.15,-22.27,-23.75,0,*73
1491721480.34,18630,11.56,74100.0,8.15,-22.27,-23.85,0,*74
1491721481.62,18631,11.56,74102.3,8.11,-21.87,-23.29,0,*7E
1491721482.84,18632,11.56,74100.8,8.11,-22.27,-23.75,0,*7D
1491721484.07,18633,11.56,74100.5,8.15,-21.77,-23.23,0,*7D
1491721485.29,18634,11.56,74104.3,8.11,-22.83,-24.35,0,*76
1491721486.54,18635,11.56,74102.0,8.11,-22.31,-23.79,0,*71
1491721487.74,18636,11.56,74100.0,8.15,-21.63,-23.09,0,*75
1491721488.99,18637,11.56,74102.5,8.11,-21.87,-23.43,0,*74
1491721490.26,18638,11.56,74102.0,8.11,-21.97,-23.49,0,*70
1491721491.51,18639,11.56,74102.5,8.11,-22.31,-23.79,0,*7D
1491721492.79,18640,11.56,74098.8,8.11,-21.67,-23.23,0,*7C
1491721494.04,18641,11.56,74100.0,8.11,-21.33,-22.67,0,*7D
1491721495.3,18642,11.56,74100.8,8.09,-21.23,-22.77,0,*77
1491721496.57,18643,11.56,74102.8,8.11,-21.33,-22.77,0,*7E
1491721497.79,18644,11.56,74102.5,8.15,-21.47,-23.03,0,*7C
1491721499.04,18645,11.56,74100.3,8.15,-20.83,-22.21,0,*75
1491721500.28,18646,11.56,74104.0,8.15,-21.27,-22.73,0,*7E
1491721501.54,18647,11.56,74100.5,8.15,-20.99,-22.47,0,*7C
1491721502.82,18648,11.56,74100.5,8.17,-20.83,-22.17,0,*7F
1491721504.07,18649,11.56,74102.8,8.17,-21.33,-22.83,0,*79
1491721505.32,18650,11.56,74102.0,8.19,-21.23,-22.73,0,*71
1491721506.52,18651,11.56,74100.8,8.19,-21.43,-22.97,0,*7C
1491721507.74,18652,11.56,74102.3,8.19,-22.73,-24.35,0,*71
1491721508.96,18653,11.56,74106.3,8.19,-22.07,-23.53,0,*74
1491721510.21,18654,11.56,74100.8,8.17,-21.77,-23.33,0,*7F
1491721511.42,18655,11.56,74102.0,8.19,-21.43,-22.97,0,*78
1491721512.64,18656,11.56,74100.3,8.19,-20.99,-22.41,0,*76
1491721513.84,18657,11.56,74102.0,8.19,-20.63,-22.03,0,*74
1491721515.09,18658,11.63,74106.8,8.21,-21.27,-22.93,0,*78
1491721516.34,18659,11.56,74102.8,8.21,-21.23,-22.67,0,*76
1491721517.57,18660,11.56,74102.3,8.23,-20.93,-22.47,0,*76
1491721518.81,18661,11.56,74102.0,8.23,-20.79,-22.21,0,*73
1491721520.05,18662,11.56,74100.3,8.23,-20.79,-22.21,0,*70
1491721521.26,18663,11.56,74100.3,8.23,-20.29,-21.83,0,*7F
1491721522.46,18664,11.56,74100.5,8.27,-21.47,-22.93,0,*77
1491721523.7,18665,11.63,74104.5,8.27,-20.19,-21.57,0,*77
1491721524.92,18666,11.56,74102.0,8.27,-20.53,-22.03,0,*78
1491721526.12,18667,11.56,74106.5,8.31,-20.89,-22.37,0,*7E
1491721527.36,18668,11.56,74102.3,8.29,-22.11,-23.65,0,*7D
1491721528.59,18669,11.56,74102.8,8.29,-21.17,-22.83,0,*70
1491721529.81,18670,11.56,74100.5,8.29,-21.43,-22.97,0,*7C
1491721531.07,18671,11.56,74104.5,8.29,-21.73,-23.19,0,*79
1491721532.32,18672,11.56,74102.5,8.29,-21.33,-22.83,0,*7C
1491721533.54,18673,11.56,74100.3,8.31,-20.43,-21.87,0,*75
1491721534.79,18674,11.56,74100.8,8.31,-21.57,-23.19,0,*73
1491721536.02,18675,11.56,74102.5,8.31,-21.67,-23.13,0,*7B
1491721537.21,18676,11.56,74102.5,8.31,-21.09,-22.67,0,*72
1491721538.43,18677,11.56,74102.8,8.33,-20.73,-22.07,0,*7B
1491721539.7,18678,11.56,74100.8,8.33,-21.83,-23.33,0,*7C
1491721540.97,18679,11.56,74102.5,8.33,-21.97,-23.49,0,*75
1491721542.22,18680,11.56,74100.3,8.33,-22.77,-24.31,0,*76
1491721543.47,18681,11.56,74102.0,8.33,-22.53,-24.15,0,*77
1491721544.68,18682,11.56,74098.5,8.33,-22.03,-23.59,0,*7E
1491721545.91,18683,11.56,74102.8,8.33,-21.39,-22.83,0,*73
1491721547.18,18684,11.56,74102.8,8.33,-21.23,-22.77,0,*74
1491721548.38,18685,11.56,74100.8,8.35,-20.89,-22.41,0,*77
1491721549.6,18686,11.63,74106.5,8.35,-21.33,-22.87,0,*7E
1491721550.85,18687,11.56,74100.8,8.35,-21.83,-23.29,0,*71
1491721552.07,18688,11.56,74104.0,8.33,-21.43,-22.93,0,*74
1491721553.29,18689,11.63,74106.3,8.39,-20.83,-22.37,0,*7C
1491721554.53,18690,11.56,74104.3,8.39,-20.79,-22.21,0,*76
1491721555.75,18691,11.56,74102.5,8.39,-20.83,-22.37,0,*75
1491721557.0,18692,11.63,74104.3,8.41,-21.27,-22.87,0,*7D
1491721558.22,18693,11.56,74102.3,8.39,-21.03,-22.53,0,*7C
1491721559.48,18694,11.63,74106.5,8.41,-21.57,-23.09,0,*7B
1491721560.69,18695,11.63,74104.8,8.41,-20.93,-22.41,0,*7E
1491721561.93,18696,11.56,74102.5,8.45,-20.89,-22.47,0,*74
1491721563.19,18697,11.56,74100.5,8.47,-22.57,-24.21,0,*70
1491721564.43,18698,11.56,74100.3,8.47,-21.47,-22.97,0,*76
1491721565.66,18699,11.56,74104.0,8.45,-21.67,-23.13,0,*7A
1491721566.87,18700,11.56,74100.3,8.45,-21.39,-22.93,0,*79
1491721568.1,18701,11.56,74102.0,8.45,-21.09,-22.47,0,*72
1491721569.38,18702,11.56,74100.5,8.47,-20.53,-21.87,0,*72
1491721570.61,18703,11.56,74102.3,8.47,-21.17,-22.63,0,*7B
1491721571.84,18704,11.56,74102.0,8.49,-21.57,-23.09,0,*7B
1491721573.06,18705,11.56,74102.3,8.49,-22.07,-23.53,0,*73
1491721574.28,18706,11.56,74102.0,8.49,-20.79,-22.27,0,*79
1491721575.52,18707,11.56,74102.8,8.51,-20.59,-21.93,0,*7F
1491721576.72,18708,11.56,74106.0,8.49,-20.69,-22.27,0,*76
1491721577.94,18709,11.56,74100.0,8.51,-21.13,-22.67,0,*76
1491721579.16,18710,11.56,74102.0,8.51,-21.09,-22.53,0,*72
1491721580.41,18711,11.56,74100.5,8.53,-20.79,-22.21,0,*72
1491721581.67,18712,11.56,74098.8,8.55,-20.59,-21.97,0,*7B
1491721582.89,18713,11.56,74100.0,8.53,-21.43,-22.77,0,*7B
1491721584.12,18714,11.56,74102.0,8.55,-21.39,-22.83,0,*7C
1491721585.34,18715,11.56,74102.8,8.55,-20.89,-22.41,0,*79
1491721586.59,18716,11.56,74104.3,8.55,-21.03,-22.41,0,*79
1491721587.84,18717,11.56,74102.8,8.55,-20.39,-21.97,0,*78
1491721589.07,18718,11.63,74104.3,8.59,-20.39,-21.93,0,*7F
1491721590.32,18719,11.56,74102.5,8.59,-20.05,-21.27,0,*7E
1491721591.57,18720,11.56,74104.5,8.59,-20.39,-21.97,0,*70
1491721592.79,18721,11.56,74100.5,8.59,-20.89,-22.41,0,*72
1491721594.05,18722,11.56,74102.8,8.59,-21.27,-22.83,0,*7A
1491721595.28,18723,11.63,74104.8,8.63,-20.93,-22.63,0,*72
1491721596.53,18724,11.56,74102.8,8.63,-21.23,-22.67,0,*7B
1491721597.76,18725,11.56,74102.5,8.65,-21.73,-23.33,0,*79
1491721599.01,18726,11.56,74102.5,8.63,-21.27,-22.83,0,*77
1491721600.25,18727,11.56,74100.0,8.65,-21.53,-22.87,0,*77
1491721601.45,18728,11.56,74104.0,8.65,-20.93,-22.37,0,*7E
1491721602.65,18729,11.56,74104.5,8.65,-21.43,-22.87,0,*78
1491721603.88,18730,11.56,74102.5,8.65,-20.69,-22.21,0,*75
1491721605.13,18731,11.63,74104.5,8.65,-20.79,-22.21,0,*75
1491721606.41,18732,11.63,74106.5,8.67,-21.03,-22.17,0,*7D
1491721607.65,18733,11.56,74104.3,8.69,-21.87,-23.43,0,*7E
1491721608.87,18734,11.56,74104.3,8.67,-22.03,-23.59,0,*73
1491721610.15,18735,11.56,74102.0,8.67,-21.67,-23.23,0,*7E
1491721611.38,18736,11.56,74104.0,8.69,-21.03,-22.41,0,*74
1491721612.6,18737,11.56,74102.8,8.67,-20.25,-21.73,0,*7C
1491721613.8,18738,11.56,74102.8,8.69,-21.09,-22.63,0,*70
1491721614.99,18739,11.56,74104.5,8.73,-20.29,-21.73,0,*7B
1491721616.26,18740,11.56,74102.0,8.71,-20.53,-21.97,0,*70
1491721617.48,18741,11.63,74106.8,8.71,-21.13,-22.53,0,*7F
1491721618.71,18742,11.63,74106.8,8.73,-21.73,-23.19,0,*77
1491721619.94,18743,11.56,74104.5,8.73,-21.09,-22.47,0,*71
1491721621.13,18744,11.63,74106.5,8.73,-20.69,-22.07,0,*75
1491721622.36,18745,11.56,74100.5,8.75,-21.17,-22.67,0,*7C
1491721623.59,18746,11.56,74100.0,8.77,-21.17,-22.67,0,*7D
1491721624.81,18747,11.56,74102.3,8.75,-20.59,-22.11,0,*74
1491721626.07,18748,11.56,74102.8,8.75,-20.89,-22.31,0,*74
1491721627.32,18749,11.56,74102.3,8.77,-21.03,-22.41,0,*73
1491721628.58,18750,11.56,74102.8,8.77,-20.43,-21.87,0,*77
1491721629.78,18751,11.56,74102.8,8.79,-20.73,-22.27,0,*72
1491721631.01,18752,11.56,74102.3,8.79,-21.27,-22.63,0,*71
1491721632.24,18753,11.56,74102.0,8.79,-21.27,-22.93,0,*7F
1491721633.44,18754,11.56,74102.0,8.79,-21.13,-22.41,0,*70
1491721634.69,18755,11.56,74104.0,8.81,-20.59,-21.97,0,*71
1491721635.95,18756,11.56,74102.3,8.81,-21.03,-22.57,0,*73
1491721637.2,18757,11.56,74102.3,8.81,-21.77,-23.19,0,*7A
1491721638.45,18758,11.56,74104.0,8.81,-21.03,-22.41,0,*7A
1491721639.7,18759,11.56,74104.3,8.81,-20.99,-22.41,0,*79
1491721640.95,18760,11.56,74102.8,8.81,-20.53,-22.07,0,*77
1491721642.19,18761,11.56,74104.8,8.81,-21.03,-22.41,0,*70
1491721643.42,18762,11.63,74106.3,8.87,-20.93,-22.47,0,*7B
1491721644.64,18763,11.56,74104.3,8.85,-21.09,-22.53,0,*7F
1491721645.92,18764,11.56,74106.0,8.85,-20.83,-21.97,0,*70
1491721647.17,18765,11.56,74102.0,8.87,-21.23,-22.77,0,*75
1491721648.42,18766,11.63,74106.8,8.85,-21.77,-23.19,0,*7C
1491721649.67,18767,11.56,74102.8,8.85,-22.03,-23.49,0,*78
1491721650.92,18768,11.56,74104.3,8.85,-21.87,-23.39,0,*7F
1491721652.2,18769,11.56,74106.0,8.85,-21.87,-23.29,0,*7F
1491721653.42,18770,11.63,74104.0,8.87,-21.09,-22.47,0,*7A
1491721654.63,18771,11.56,74100.3,8.87,-20.29,-21.83,0,*73
1491721655.86,18772,11.63,74106.5,8.89,-20.89,-22.37,0,*78
1491721657.08,18773,11.63,74106.5,8.91,-20.59,-21.97,0,*74
1491721658.36,18774,11.56,74104.5,8.89,-20.79,-22.17,0,*73
1491721659.61,18775,11.56,74102.8,8.89,-20.73,-22.17,0,*78
1491721660.88,18776,11.56,74102.8,8.89,-21.27,-22.77,0,*7D
1491721662.11,18777,11.56,74106.8,8.91,-21.39,-22.77,0,*7A
1491721663.33,18778,11.56,74100.8,8.91,-20.89,-22.21,0,*7C
1491721664.58,18779,11.56,74102.5,8.91,-21.83,-23.29,0,*7F
1491721665.79,18780,11.56,74100.8,8.91,-20.29,-21.67,0,*70
1491721667.07,18781,11.56,74104.3,8.93,-20.83,-22.31,0,*73
1491721668.32,18782,11.63,74106.0,8.93,-20.83,-22.27,0,*77
1491721669.51,18783,11.56,74104.0,8.95,-21.13,-22.41,0,*78
1491721670.71,18784,11.56,74104.3,8.95,-21.93,-23.39,0,*79
1491721671.89,18785,11.63,74104.8,8.95,-21.09,-22.41,0,*75
1491721673.11,18786,11.63,74108.0,8.95,-20.99,-22.41,0,*7E
1491721674.31,18787,11.63,74106.5,8.95,-21.13,-22.57,0,*7B
1491721675.55,18788,11.63,74104.0,8.95,-20.83,-22.21,0,*7D
1491721676.8,18789,11.56,74104.8,8.97,-21.97,-23.43,0,*7F
1491721678.05,18790,11.63,74106.5,8.97,-21.27,-22.53,0,*7C
1491721679.3,18791,11.56,74102.8,8.97,-20.43,-21.83,0,*70
1491721680.5,18792,11.63,74104.5,8.99,-20.93,-22.37,0,*7C
1491721681.75,18793,11.63,74104.0,8.99,-21.83,-23.19,0,*70
1491721682.99,18794,11.56,74100.8,8.97,-20.29,-21.67,0,*73
1491721684.2,18795,11.63,74104.3,8.99,-20.73,-22.21,0,*72
1491721685.42,18796,11.63,74104.8,8.99,-21.57,-22.93,0,*7F
1491721686.65,18797,11.56,74102.0,8.99,-21.67,-23.13,0,*74
1491721687.87,18798,11.63,74104.3,8.99,-21.57,-23.13,0,*78
1491721689.1,18799,11.56,74104.8,8.99,-21.83,-23.43,0,*75
1491721690.29,18800,11.56,74104.8,8.99,-20.93,-22.37,0,*78
1491721691.48,18801,11.56,74102.3,8.99,-20.93,-22.37,0,*79
1491721692.73,18802,11.63,74104.0,8.99,-21.67,-23.19,0,*7D
1491721693.92,18803,11.63,74106.3,8.99,-20.73,-22.03,0,*72
1491721695.12,18804,11.63,74104.8,9.03,-20.73,-22.11,0,*74
1491721696.33,18805,11.63,74104.8,9.03,-20.99,-22.41,0,*74
1491721697.56,18806,11.63,74104.5,9.03,-21.09,-22.47,0,*79
1491721698.77,18807,11.63,74106.3,9.03,-20.99,-22.41,0,*76
1491721700.02,18808,11.56,74106.3,9.03,-20.83,-22.17,0,*71
1491721701.26,18809,11.63,74106.8,9.05,-20.19,-21.63,0,*75
1491721702.48,18810,11.63,74108.0,9.09,-20.29,-21.83,0,*7C